Location: Carson
(33.8314°N, 118.2820°W)
Time: 14:03:13
(UTC+00:00)

NOSS 3-2 (C) - Pass Details

Date: 23 November 2020
Orbit: 789 x 1424 km, 63.4° (Epoch: 09 January)

Event Time Altitude Azimuth Distance (km) Brightness Sun altitude
Exits shadow 13:39:05 - 329° (NNW) 3,858 6.2 -11.4°
Reaches altitude 10° 13:41:01 10° 330° (NNW) 3,208 5.8 -11.0°
Maximum altitude 13:48:58 89° 55° (NE) 1,355 4.3 -9.4°
Drops below altitude 10° 13:57:43 10° 151° (SSE) 3,503 7.2 -7.7°
Sets 14:00:42 0° 152° (SSE) 4,488 7.8 -7.1°
